Change the Weather History Date:

Saturday, June 8, 2013

  Actual Average Record
Temperature  
Mean Temperature 64 °F 63 °F  
Max Temperature 75 °F 75 °F 94 °F (2008)
Min Temperature 52 °F 50 °F 34 °F (1974)
Degree Days  
Heating Degree Days 1 4  
Month to date heating degree days 31 38  
Since 1 June heating degree days 31 38  
Since 1 July heating degree days 6804 7188  
Cooling Degree Days 0 2  
Month to date cooling degree days 29 13  
Year to date cooling degree days 50 31  
Since 1 June cooling degree days 29 13  
Growing Degree Days 12 (Base 50)    
Moisture  
Dew Point 55 °F    
Average Humidity 79    
Maximum Humidity 100    
Minimum Humidity 57    
Precipitation  
Precipitation 0.78 in 0.13 in 1.37 in (1947)
Month to date precipitation 2.96 1.06  
Year to date precipitation 15.72 16.72  
Snow  
Snow 0.00 in 0.00 in 0.00 in (2002)
Month to date snowfall 0.0 0.0  
Since 1 June snowfall 0.0 0.0  
Since 1 July snowfall 83.4 61.4  
Snow Depth 0.00 in    
Sea Level Pressure  
Sea Level Pressure 29.80 in    
Wind  
Wind Speed 8 mph (NW)    
Max Wind Speed 18 mph    
Max Gust Speed 24 mph    
Visibility 7 miles    
Events Rain    
T = Trace of Precipitation, MM = Missing Value Source: NWS Daily Summary

Daily Weather History Graph

Daily Weather History Graph

Search for Another Location

Airport or City:

Trip Planner

Search our weather history database for the weather conditions in past years. The results will help you decide how hot, cold, wet, or windy it might be!

Date:

Astronomy

Jun. 08, 2013 Rise Set
Actual Time 5:06 AM EDT 8:24 PM EDT
Civil Twilight 4:31 AM EDT 8:59 PM EDT
Nautical Twilight 3:45 AM EDT 9:45 PM EDT
Astronomical Twilight 2:49 AM EDT 10:41 PM EDT
Moon 5:13 AM EDT (6/8) 8:22 PM EDT (6/8)
Length of Visible Light 16h 28m
Length of Day
15h 17m
New Moon, 0% of the Moon is Illuminated
Jun 8
New Moon
Jun 16
First Quarter
Jun 23
Full
Jun 30
Last Quarter
Jul 8
New

Hourly Weather History & Observations

Time (EDT) Temp. Dew Point Humidity Pressure Visibility Wind Dir Wind Speed Gust Speed Precip Events Conditions
12:01 AM 51.8 °F 50.0 °F 94% 29.88 in 10.0 mi NE 6.9 mph - N/A   Overcast
12:51 AM 52.0 °F 51.1 °F 97% 29.86 in 10.0 mi NE 6.9 mph - 0.01 in Rain Light Rain
1:51 AM 52.0 °F 51.1 °F 97% 29.81 in 7.0 mi NNE 8.1 mph - 0.07 in Rain Light Rain
2:08 AM 51.8 °F 51.8 °F 100% 29.79 in 3.0 mi Variable 6.9 mph - 0.07 in Rain Heavy Rain
2:28 AM 51.8 °F 51.8 °F 100% 29.78 in 2.5 mi NNE 4.6 mph - 0.21 in Rain Heavy Rain
2:40 AM 51.8 °F 51.8 °F 100% 29.77 in 2.5 mi NE 8.1 mph - 0.34 in Rain Heavy Rain
2:51 AM 52.0 °F 51.1 °F 97% 29.80 in 3.0 mi Variable 3.5 mph - 0.43 in Rain Heavy Rain
2:59 AM 51.8 °F 51.8 °F 100% 29.79 in 3.0 mi NW 5.8 mph - 0.03 in Rain Heavy Rain
3:51 AM 52.0 °F 52.0 °F 100% 29.75 in 10.0 mi NNW 4.6 mph - 0.18 in   Overcast
4:51 AM 52.0 °F 52.0 °F 100% 29.72 in 5.0 mi NNW 5.8 mph - 0.01 in   Overcast
5:32 AM 51.8 °F 51.8 °F 100% 29.70 in 2.0 mi NNW 3.5 mph - 0.00 in Rain Light Rain
5:51 AM 52.0 °F 52.0 °F 100% 29.71 in 2.5 mi NNW 5.8 mph - 0.01 in Rain Light Rain
6:10 AM 53.6 °F 51.8 °F 94% 29.70 in 3.0 mi NNW 6.9 mph - 0.00 in   Overcast
6:21 AM 53.6 °F 53.6 °F 100% 29.69 in 2.5 mi NNW 6.9 mph - 0.01 in   Overcast
6:51 AM 53.1 °F 53.1 °F 100% 29.70 in 1.5 mi NNW 8.1 mph - 0.02 in Rain Light Rain
7:03 AM 53.6 °F 53.6 °F 100% 29.69 in 1.8 mi NNW 8.1 mph - 0.01 in Rain Rain
7:35 AM 53.6 °F 53.6 °F 100% 29.69 in 2.5 mi NW 8.1 mph - 0.06 in Rain Light Rain
7:51 AM 54.0 °F 54.0 °F 100% 29.69 in 4.0 mi NNW 8.1 mph - 0.07 in Rain Light Rain
7:58 AM 53.6 °F 53.6 °F 100% 29.69 in 5.0 mi NNW 9.2 mph - 0.00 in Rain Light Rain
8:51 AM 55.9 °F 55.0 °F 97% 29.71 in 10.0 mi NW 9.2 mph - 0.00 in   Overcast
9:51 AM 60.1 °F 55.9 °F 86% 29.74 in 10.0 mi NW 8.1 mph - N/A   Overcast
10:02 AM 60.8 °F 55.4 °F 82% 29.73 in 10.0 mi NNW 9.2 mph - N/A   Overcast
10:51 AM 66.0 °F 57.0 °F 73% 29.74 in 10.0 mi NW 6.9 mph - N/A   Mostly Cloudy
11:51 AM 68.0 °F 57.0 °F 68% 29.78 in 10.0 mi NW 13.8 mph 24.2 mph N/A   Mostly Cloudy
12:51 PM 71.1 °F 57.9 °F 63% 29.78 in 10.0 mi WNW 13.8 mph - N/A   Overcast
12:59 PM 71.6 °F 57.2 °F 60% 29.78 in 10.0 mi WNW 12.7 mph - N/A   Mostly Cloudy
1:51 PM 73.9 °F 59.0 °F 59% 29.79 in 10.0 mi West 15.0 mph 21.9 mph N/A   Scattered Clouds
2:51 PM 73.9 °F 57.9 °F 57% 29.82 in 10.0 mi WNW 13.8 mph 24.2 mph N/A   Overcast
3:51 PM 71.1 °F 57.0 °F 61% 29.84 in 10.0 mi WNW 13.8 mph - N/A   Overcast
4:51 PM 71.1 °F 57.0 °F 61% 29.86 in 10.0 mi West 11.5 mph - N/A   Overcast
5:51 PM 69.1 °F 57.0 °F 65% 29.90 in 10.0 mi WNW 10.4 mph - N/A   Overcast
6:51 PM 68.0 °F 57.0 °F 68% 29.92 in 10.0 mi West 6.9 mph - N/A   Overcast
7:51 PM 66.9 °F 57.0 °F 70% 29.93 in 10.0 mi West 4.6 mph - N/A   Overcast
8:51 PM 66.0 °F 57.9 °F 75% 29.94 in 10.0 mi West 3.5 mph - N/A   Overcast
9:51 PM 64.9 °F 57.9 °F 78% 29.98 in 10.0 mi WSW 4.6 mph - N/A   Overcast
10:51 PM 64.0 °F 59.0 °F 84% 29.99 in 10.0 mi NW 3.5 mph - N/A   Overcast
11:51 PM 60.1 °F 55.0 °F 83% 30.01 in 10.0 mi NW 5.8 mph - N/A   Clear